Location: Unspecified
(0.0000°N, 0.0000°E)
Time: 01:17:39
(UTC+00:00)

STRELA 3 - Pass Details

Date: 24 May 2026
Orbit: 1496 x 1510 km, 82.5° (Epoch: 10 June)

Event Time Altitude Azimuth Distance (km) Brightness Sun altitude
Rises 01:42:45 0° 1° (N) 4,614 10.6 -56.8°
Reaches altitude 10° 01:45:38 10° 3° (N) 3,636 10.0 -56.3°
Enters shadow 01:46:07 12° 3° (N) 3,471 9.8 -56.2°
